Location: Trebic
(49.2170°N, 15.8830°E)
Time: 02:03:37
(UTC+02:00)

Transit 2A Rocket - Pass Details

Date: 23 July 2019
Orbit: 590 x 913 km, 66.7° (Epoch: 22 August)

Event Time Altitude Azimuth Distance (km) Brightness Sun altitude
Rises 12:53:51 0° 318° (NW) 3,158 8.0 60.8°
Reaches altitude 10° 12:56:30 10° 308° (NW) 2,175 7.3 60.8°
Maximum altitude 13:00:48 31° 247° (WSW) 1,157 6.6 60.9°
Drops below altitude 10° 13:04:47 10° 185° (S) 2,007 7.8 60.9°
Sets 13:07:09 0° 175° (S) 2,874 8.4 60.8°
